TimeMST,TemperatureF,Dew PointF,Humidity,Sea Level PressureIn,VisibilityMPH,Wind Direction,Wind SpeedMPH,Gust SpeedMPH,PrecipitationIn,Events,Conditions,WindDirDegrees,DateUTC
12:53 AM,39.9,21.9,49,30.09,10.0,SSW,11.5,-,N/A,,Clear,200,2012-12-04 07:53:00
1:53 AM,37.9,21.9,53,30.09,10.0,SSW,15.0,-,N/A,,Clear,210,2012-12-04 08:53:00
2:53 AM,37.0,21.9,54,30.10,10.0,South,9.2,-,N/A,,Clear,190,2012-12-04 09:53:00
3:53 AM,37.0,21.0,52,30.06,10.0,South,10.4,-,N/A,,Clear,180,2012-12-04 10:53:00
4:53 AM,42.1,19.9,41,30.02,10.0,South,15.0,-,N/A,,Partly Cloudy,180,2012-12-04 11:53:00
5:53 AM,42.1,19.0,40,29.99,10.0,South,15.0,-,N/A,,Overcast,170,2012-12-04 12:53:00
6:53 AM,43.0,19.9,40,29.97,10.0,South,17.3,-,N/A,,Overcast,180,2012-12-04 13:53:00
7:53 AM,44.1,21.9,42,29.97,10.0,South,28.8,36.8,N/A,,Overcast,190,2012-12-04 14:53:00
8:53 AM,41.0,28.0,60,29.96,10.0,South,23.0,27.6,0.00,,Overcast,190,2012-12-04 15:53:00
9:53 AM,42.1,28.0,58,29.95,10.0,SSW,19.6,28.8,N/A,,Overcast,200,2012-12-04 16:53:00
10:53 AM,45.0,28.9,53,29.93,10.0,South,13.8,19.6,N/A,,Overcast,190,2012-12-04 17:53:00
11:53 AM,48.9,27.0,43,29.89,10.0,SSW,20.7,26.5,N/A,,Clear,210,2012-12-04 18:53:00
12:53 PM,54.0,28.9,38,29.86,10.0,SW,29.9,36.8,N/A,,Clear,220,2012-12-04 19:53:00
1:53 PM,54.0,28.9,38,29.83,10.0,SSW,28.8,33.4,N/A,,Clear,200,2012-12-04 20:53:00
2:53 PM,52.0,28.9,41,29.85,10.0,SSW,23.0,29.9,N/A,,Clear,210,2012-12-04 21:53:00
3:53 PM,53.1,30.0,41,29.85,10.0,SSW,18.4,-,N/A,,Clear,210,2012-12-04 22:53:00
4:53 PM,51.1,30.0,44,29.84,10.0,SSW,16.1,21.9,N/A,,Clear,200,2012-12-04 23:53:00
5:53 PM,51.1,30.0,44,29.83,10.0,SSW,23.0,29.9,N/A,,Clear,200,2012-12-05 00:53:00
6:53 PM,50.0,30.9,48,29.81,10.0,SSW,24.2,-,N/A,,Clear,210,2012-12-05 01:53:00
7:53 PM,52.0,32.0,47,29.78,10.0,SW,27.6,36.8,N/A,,Clear,220,2012-12-05 02:53:00
8:53 PM,53.1,32.0,45,29.80,10.0,SW,26.5,36.8,N/A,,Clear,220,2012-12-05 03:53:00
9:53 PM,51.1,33.1,50,29.78,10.0,SW,26.5,33.4,N/A,,Clear,220,2012-12-05 04:53:00
10:53 PM,51.1,33.1,50,29.76,10.0,SW,23.0,28.8,N/A,,Clear,220,2012-12-05 05:53:00
11:53 PM,51.1,33.1,50,29.73,10.0,SSW,24.2,31.1,N/A,,Clear,210,2012-12-05 06:53:00